• în România
  • Lista ţărilor
  • Pe 7 zile
  • Temperatura apei
  • Hartă satelitară
  • Meteo pe hartă
  • Widget-uri
  • user-avatar
    Intrare

    Meteo pe oră la Mendoza

    Astăzi, 22 Februarie, Miercuri

    Timp Temperatura Precipitaţii Vânt Presiune Umiditate
    00:00 +29°C° 0,1 mm 3 m/s 699 mmHg 49%
    01:00 +28°C° 0,1 mm 3 m/s 699 mmHg 51%
    02:00 +28°C° 0 mm 3 m/s 699 mmHg 51%
    03:00 +28°C° 0 mm 3 m/s 699 mmHg 51%
    04:00 +27°C° 0 mm 3 m/s 699 mmHg 52%
    05:00 +28°C° 0 mm 3 m/s 699 mmHg 49%
    06:00 +29°C° 0 mm 2 m/s 699 mmHg 46%
    07:00 +29°C° 0 mm 2 m/s 700 mmHg 43%
    08:00 +31°C° 0 mm 2 m/s 699 mmHg 40%
    09:00 +32°C° 0 mm 2 m/s 699 mmHg 37%
    10:00 +35°C° 0 mm 2 m/s 699 mmHg 35%
    11:00 +36°C° 0 mm 2 m/s 699 mmHg 32%
    12:00 +37°C° 0 mm 3 m/s 698 mmHg 30%
    13:00 +38°C° 0 mm 4 m/s 698 mmHg 27%
    14:00 +38°C° 0,1 mm 4 m/s 698 mmHg 27%
    15:00 +38°C° 0,1 mm 4 m/s 697 mmHg 26%
    16:00 +38°C° 0,1 mm 4 m/s 697 mmHg 26%
    17:00 +37°C° 0,1 mm 3 m/s 697 mmHg 29%
    18:00 +35°C° 0,1 mm 3 m/s 697 mmHg 32%
    19:00 +34°C° 0,1 mm 2 m/s 697 mmHg 35%
    20:00 +32°C° 0 mm 2 m/s 697 mmHg 37%
    21:00 +31°C° 0 mm 1 m/s 698 mmHg 39%
    22:00 +31°C° 0 mm 1 m/s 698 mmHg 41%
    23:00 +30°C° 0 mm 1 m/s 698 mmHg 42%

    Mâine, 23 Februarie, Joi

    Timp Temperatura Precipitaţii Vânt Presiune Umiditate
    00:00 +30°C° 0 mm 2 m/s 697 mmHg 42%
    01:00 +29°C° 0 mm 2 m/s 697 mmHg 43%
    02:00 +29°C° 0 mm 2 m/s 697 mmHg 43%
    03:00 +28°C° 0 mm 2 m/s 697 mmHg 44%
    04:00 +28°C° 0 mm 2 m/s 697 mmHg 44%
    05:00 +29°C° 0 mm 2 m/s 697 mmHg 41%
    06:00 +30°C° 0 mm 1 m/s 698 mmHg 38%
    07:00 +31°C° 0 mm 1 m/s 698 mmHg 35%
    08:00 +32°C° 0 mm 1 m/s 698 mmHg 32%
    09:00 +35°C° 0 mm 2 m/s 699 mmHg 30%
    10:00 +36°C° 0 mm 2 m/s 699 mmHg 27%
    11:00 +37°C° 0 mm 2 m/s 698 mmHg 26%
    12:00 +38°C° 0 mm 3 m/s 698 mmHg 24%
    13:00 +40°C° 0 mm 4 m/s 697 mmHg 23%
    14:00 +40°C° 0,1 mm 4 m/s 697 mmHg 23%
    15:00 +40°C° 0,1 mm 4 m/s 697 mmHg 23%
    16:00 +40°C° 0,1 mm 4 m/s 696 mmHg 23%
    17:00 +37°C° 0,1 mm 3 m/s 696 mmHg 27%
    18:00 +36°C° 0,1 mm 2 m/s 696 mmHg 31%
    19:00 +34°C° 0,1 mm 2 m/s 696 mmHg 35%
    20:00 +34°C° 0,1 mm 2 m/s 697 mmHg 36%
    21:00 +32°C° 0,1 mm 2 m/s 697 mmHg 36%
    22:00 +32°C° 0,1 mm 2 m/s 698 mmHg 37%
    23:00 +31°C° 0 mm 2 m/s 697 mmHg 38%

    Poimâine, 24 Februarie, Vineri

    Timp Temperatura Precipitaţii Vânt Presiune Umiditate
    00:00 +31°C° 0 mm 2 m/s 697 mmHg 39%
    01:00 +30°C° 0 mm 2 m/s 697 mmHg 40%
    02:00 +29°C° 0 mm 2 m/s 696 mmHg 42%
    03:00 +29°C° 0 mm 1 m/s 696 mmHg 43%
    04:00 +28°C° 0 mm 1 m/s 696 mmHg 44%
    05:00 +29°C° 0 mm 1 m/s 697 mmHg 41%
    06:00 +30°C° 0 mm 1 m/s 697 mmHg 39%
    07:00 +31°C° 0 mm 1 m/s 698 mmHg 36%
    08:00 +32°C° 0 mm 1 m/s 698 mmHg 33%
    09:00 +35°C° 0 mm 2 m/s 698 mmHg 31%
    10:00 +36°C° 0 mm 3 m/s 698 mmHg 29%
    11:00 +37°C° 0,1 mm 3 m/s 698 mmHg 27%
    12:00 +38°C° 0,1 mm 4 m/s 697 mmHg 26%
    13:00 +40°C° 0,1 mm 5 m/s 697 mmHg 25%
    14:00 +40°C° 0,2 mm 4 m/s 697 mmHg 26%
    15:00 +40°C° 0,2 mm 4 m/s 696 mmHg 26%
    16:00 +40°C° 0,2 mm 4 m/s 696 mmHg 26%
    17:00 +37°C° 0,2 mm 3 m/s 696 mmHg 30%
    18:00 +36°C° 0,2 mm 3 m/s 696 mmHg 33%
    19:00 +34°C° 0,2 mm 2 m/s 697 mmHg 37%
    20:00 +34°C° 0,2 mm 2 m/s 697 mmHg 38%
    21:00 +32°C° 0,2 mm 2 m/s 697 mmHg 38%
    22:00 +31°C° 0,2 mm 2 m/s 698 mmHg 39%
    23:00 +31°C° 0,1 mm 2 m/s 697 mmHg 40%

    25 Februarie, Sâmbătă

    Timp Temperatura Precipitaţii Vânt Presiune Umiditate
    00:00 +30°C° 0,1 mm 2 m/s 697 mmHg 42%
    01:00 +29°C° 0,1 mm 2 m/s 697 mmHg 43%
    02:00 +29°C° 0 mm 2 m/s 697 mmHg 44%
    03:00 +28°C° 0 mm 2 m/s 697 mmHg 44%
    04:00 +28°C° 0 mm 2 m/s 697 mmHg 45%
    05:00 +29°C° 0 mm 1 m/s 697 mmHg 43%
    06:00 +30°C° 0 mm 1 m/s 698 mmHg 40%
    07:00 +31°C° 0 mm 1 m/s 698 mmHg 37%
    08:00 +32°C° 0,1 mm 2 m/s 698 mmHg 35%
    09:00 +34°C° 0,1 mm 2 m/s 699 mmHg 33%
    10:00 +35°C° 0,1 mm 2 m/s 699 mmHg 31%
    11:00 +36°C° 0,1 mm 2 m/s 698 mmHg 30%
    12:00 +36°C° 0,1 mm 3 m/s 698 mmHg 28%
    13:00 +37°C° 0,1 mm 3 m/s 697 mmHg 27%
    14:00 +37°C° 0,1 mm 3 m/s 697 mmHg 27%
    15:00 +37°C° 0,1 mm 3 m/s 696 mmHg 28%
    16:00 +37°C° 0,1 mm 4 m/s 696 mmHg 28%
    17:00 +36°C° 0,5 mm 3 m/s 696 mmHg 33%
    18:00 +35°C° 0,5 mm 3 m/s 696 mmHg 38%
    19:00 +32°C° 0,5 mm 2 m/s 697 mmHg 43%
    20:00 +31°C° 1,6 mm 2 m/s 697 mmHg 47%
    21:00 +30°C° 1,6 mm 2 m/s 697 mmHg 51%
    22:00 +29°C° 1,6 mm 3 m/s 697 mmHg 55%
    23:00 +28°C° 0,5 mm 2 m/s 696 mmHg 57%

    26 Februarie, Duminică

    Timp Temperatura Precipitaţii Vânt Presiune Umiditate
    00:00 +28°C° 0,5 mm 2 m/s 696 mmHg 58%
    01:00 +27°C° 0,5 mm 2 m/s 696 mmHg 60%
    02:00 +27°C° 0,2 mm 2 m/s 695 mmHg 61%
    03:00 +27°C° 0,2 mm 2 m/s 695 mmHg 61%
    04:00 +26°C° 0,2 mm 1 m/s 695 mmHg 62%
    05:00 +27°C° 0,1 mm 1 m/s 695 mmHg 59%
    06:00 +28°C° 0,1 mm 1 m/s 696 mmHg 55%
    07:00 +29°C° 0,1 mm 1 m/s 696 mmHg 52%
    08:00 +30°C° 0,2 mm 1 m/s 696 mmHg 48%
    09:00 +31°C° 0,2 mm 2 m/s 697 mmHg 45%
    10:00 +34°C° 0,2 mm 2 m/s 697 mmHg 41%
    11:00 +34°C° 0,3 mm 3 m/s 696 mmHg 40%
    12:00 +35°C° 0,3 mm 3 m/s 696 mmHg 39%
    13:00 +36°C° 0,3 mm 3 m/s 695 mmHg 38%
    14:00 +36°C° 2,1 mm 3 m/s 695 mmHg 38%
    15:00 +35°C° 2,1 mm 2 m/s 695 mmHg 39%
    16:00 +35°C° 2,1 mm 2 m/s 695 mmHg 40%
    17:00 +34°C° 2,3 mm 3 m/s 695 mmHg 47%
    18:00 +32°C° 2,3 mm 5 m/s 696 mmHg 53%
    19:00 +29°C° 2,3 mm 6 m/s 696 mmHg 59%
    20:00 +29°C° 1,6 mm 5 m/s 696 mmHg 61%
    21:00 +28°C° 1,6 mm 4 m/s 696 mmHg 63%
    22:00 +28°C° 1,6 mm 3 m/s 697 mmHg 66%
    23:00 +27°C° 0,3 mm 3 m/s 697 mmHg 68%

    27 Februarie, Luni

    Timp Temperatura Precipitaţii Vânt Presiune Umiditate
    00:00 +26°C° 0,3 mm 3 m/s 697 mmHg 70%
    01:00 +26°C° 0,3 mm 2 m/s 697 mmHg 73%
    02:00 +26°C° 0 mm 2 m/s 697 mmHg 72%
    03:00 +26°C° 0 mm 2 m/s 697 mmHg 70%
    04:00 +25°C° 0 mm 2 m/s 697 mmHg 69%
    05:00 +26°C° 0 mm 2 m/s 697 mmHg 68%
    06:00 +26°C° 0 mm 2 m/s 698 mmHg 67%
    07:00 +27°C° 0 mm 3 m/s 698 mmHg 66%
    08:00 +28°C° 0 mm 3 m/s 698 mmHg 61%
    09:00 +29°C° 0 mm 3 m/s 698 mmHg 56%
    10:00 +31°C° 0 mm 3 m/s 698 mmHg 51%
    11:00 +33°C° 0,5 mm 4 m/s 698 mmHg 48%
    12:00 +34°C° 0,5 mm 4 m/s 698 mmHg 46%
    13:00 +34°C° 0,5 mm 4 m/s 697 mmHg 43%
    14:00 +34°C° 1,5 mm 5 m/s 697 mmHg 45%
    15:00 +34°C° 1,5 mm 5 m/s 697 mmHg 47%
    16:00 +33°C° 1,5 mm 5 m/s 697 mmHg 50%
    17:00 +32°C° 2,6 mm 5 m/s 697 mmHg 55%
    18:00 +29°C° 2,6 mm 4 m/s 697 mmHg 61%
    19:00 +28°C° 2,6 mm 4 m/s 698 mmHg 67%
    20:00 +27°C° 2,1 mm 4 m/s 698 mmHg 69%
    21:00 +27°C° 2,1 mm 4 m/s 698 mmHg 70%
    22:00 +26°C° 2,1 mm 4 m/s 698 mmHg 72%
    23:00 +26°C° 0,7 mm 3 m/s 698 mmHg 72%
    Arată mai mult